Regional Weather Roundup
Issued by NWS

Home | Current Version | Previous Version | Graphics & Text | Print | Product List | Glossary On
Versions: 1 2 3 4 5 6 7 8 9 10 11 12 13 14 15 16 17 18 19 20 21 22 23 24 25 26 27 28 29 30 31 32 33 34 35 36 37 38 39 40 41 42 43 44 45 46 47 48 49 50
000
ASUS43 KBIS 231459
RWRND

NORTH DAKOTA REGIONAL WEATHER ROUNDUP
NATIONAL WEATHER SERVICE BISMARCK ND
1000 AM CDT TUE SEP 23 2014

NOTE: "FAIR" INDICATES FEW OR NO CLOUDS BELOW 12,000 FEET WITH NO
SIGNIFICANT WEATHER AND/OR OBSTRUCTIONS TO VISIBILITY.


NDZ001>003-009>011-017-231600-
NORTHWEST NORTH DAKOTA

CITY           SKY/WX    TMP DP  RH WIND       PRES   REMARKS
WILLISTON      SUNNY     61  51  70 CALM      29.87R
MINOT          SUNNY     62  54  74 S9        29.89R
$$

NDZ018>021-031>035-040>046-231600-
SOUTHWEST NORTH DAKOTA

CITY           SKY/WX    TMP DP  RH WIND       PRES   REMARKS
BISMARCK       PTSUNNY   66  56  70 S14       29.94R
GARRISON         N/A     61  56  83 S10       29.91R
HETTINGER ARPT MOSUNNY   61  56  83 SE8       29.92S
$$

NDZ004>008-012>016-024-026-027-054-231600-
NORTHEAST NORTH DAKOTA

CITY           SKY/WX    TMP DP  RH WIND       PRES   REMARKS
GRAND FORKS    SUNNY     62  52  69 S14       30.02S
DEVILS LAKE    SUNNY     63  52  67 S13       29.96S
$$

NDZ022-023-025-028>030-036>039-047>053-231600-
SOUTHEAST NORTH DAKOTA

CITY           SKY/WX    TMP DP  RH WIND       PRES   REMARKS
FARGO          SUNNY     63  51  65 SE14      30.05S
$$




USA.gov is the U.S. government's official web portal to all federal, state and local government web resources and services.